Weather History for Page, AZ

Change the Weather History Date:

Friday, September 23, 2011

  Actual Average Record
Temperature  
Mean Temperature 75 °F -  
Max Temperature 89 °F 80 °F 98 °F (1982)
Min Temperature 61 °F 55 °F 43 °F (1968)
Cooling Degree Days 10    
Growing Degree Days 25 (Base 50)    
Moisture  
Dew Point 27 °F    
Average Humidity 18    
Maximum Humidity 32    
Minimum Humidity 8    
Precipitation  
Precipitation 0.00 in - - ()
Sea Level Pressure  
Sea Level Pressure 30.08 in    
Wind  
Wind Speed 2 mph (NE)    
Max Wind Speed 8 mph    
Max Gust Speed -    
Visibility 10 miles    
Events      
Averages and records for this station are not official NWS values.
T = Trace of Precipitation, MM = Missing Value Source: NWS Daily Summary

Daily Weather History Graph

Daily Weather History Graph

Search for Another Location

Airport:

Trip Planner

Search our weather history database for the weather conditions in past years. The results will help you decide how hot, cold, wet, or windy it might be!

Date:

Astronomy

Sep. 23, 2011 Rise Set
Actual Time 6:14 AM MST 6:21 PM MST
Civil Twilight 5:48 AM MST 6:47 PM MST
Nautical Twilight 5:18 AM MST 7:17 PM MST
Astronomical Twilight 4:47 AM MST 7:48 PM MST
Moon 1:51 AM MST (9/23) 3:49 PM MST (9/23)
Length of Visible Light 12h 58m
Length of Day
12h 07m
Waning Crescent, 18% of the Moon is Illuminated
Sep 23
Waning Crescent
Sep 27
New
Oct 3
First Quarter
Oct 11
Full
Oct 19
Last Quarter

Hourly Weather History & Observations

Time (MST) Temp. Dew Point Humidity Pressure Visibility Wind Dir Wind Speed Gust Speed Precip Events Conditions
12:53 AM 66.2 °F 28.4 °F 24% 30.22 in 10.0 mi Calm Calm - N/A   Clear
1:53 AM 64.9 °F 28.9 °F 26% 30.05 in 10.0 mi Calm Calm - N/A   Clear
3:53 AM 66.0 °F 28.9 °F 25% 30.05 in 10.0 mi Calm Calm - N/A   Clear
4:53 AM 64.4 °F 30.2 °F 28% 30.25 in 10.0 mi Calm Calm - N/A   Unknown
5:53 AM 61.0 °F 30.9 °F 32% 30.09 in 10.0 mi Calm Calm - N/A   Unknown
6:53 AM 64.0 °F 30.0 °F 28% 30.13 in - West 3.5 mph - N/A   Unknown
7:53 AM 70.0 °F 30.9 °F 24% 30.13 in 10.0 mi Calm Calm - N/A   Clear
8:53 AM 71.1 °F 28.9 °F 21% 30.14 in 10.0 mi NW 5.8 mph - N/A   Clear
9:53 AM 75.0 °F 28.9 °F 18% 30.14 in 10.0 mi North 3.5 mph - N/A   Clear
10:53 AM 78.1 °F 28.9 °F 17% 30.12 in 10.0 mi Variable 3.5 mph - N/A   Clear
11:53 AM 80.6 °F 28.4 °F 15% 30.28 in 10.0 mi North 4.6 mph - N/A   Clear
12:53 PM 84.9 °F 28.9 °F 13% 30.06 in 10.0 mi NE 5.8 mph - N/A   Clear
1:53 PM 88.0 °F 27.0 °F 11% 30.03 in 10.0 mi North 8.1 mph - N/A   Clear
2:53 PM 89.1 °F 24.1 °F 9% 30.00 in 10.0 mi North 6.9 mph - N/A   Clear
3:53 PM 89.1 °F 21.0 °F 8% 29.97 in 10.0 mi ENE 6.9 mph - N/A   Clear
4:53 PM 87.8 °F 17.6 °F 8% 30.15 in 10.0 mi Calm Calm - N/A   Clear
5:53 PM 84.9 °F 19.9 °F 9% 30.14 in 10.0 mi East 4.6 mph - N/A   Clear
6:53 PM 78.1 °F 24.1 °F 14% 29.97 in 10.0 mi SE 4.6 mph - N/A   Clear
7:53 PM 78.1 °F 21.9 °F 12% 29.97 in 10.0 mi South 4.6 mph - N/A   Clear
8:53 PM 75.9 °F 24.1 °F 15% 29.99 in 10.0 mi SSE 4.6 mph - N/A   Clear
9:53 PM 71.1 °F 24.1 °F 17% 30.00 in 10.0 mi Calm Calm - N/A   Clear
10:53 PM 68.0 °F 28.9 °F 23% 30.00 in 10.0 mi Calm Calm - N/A   Clear
11:53 PM 66.0 °F 27.0 °F 23% 29.99 in 10.0 mi Calm Calm - N/A   Clear